Paris, IL

6:50 PM CDT on September 20, 2019 (GMT -0500)
Edgar County

Weather History for KPRG - August, 2019

Change the Weather History Date:

Saturday, August 24, 2019

  Actual Average (KHUF) Record (KHUF)
Temperature  
Mean Temperature 65 °F -  
Max Temperature 77 °F 83 °F 96 °F (1975)
Min Temperature 54 °F 60 °F 49 °F (1966)
Growing Degree Days 15 (Base 50)    
Moisture  
Dew Point 58 °F    
Average Humidity 78    
Maximum Humidity 98    
Minimum Humidity 54    
Precipitation  
Precipitation 0.00 in - - ()
Sea Level Pressure  
Sea Level Pressure 30.20 in    
Wind  
Wind Speed 5 mph ()    
Max Wind Speed 14 mph    
Max Gust Speed 18 mph    
Visibility 10.0 miles    
Events      
Averages and records for this station are not official NWS values.
T = Trace of Precipitation, MM = Missing Value Source: Averaged Metar Reports

Daily Weather History Graph

Daily Weather History Graph

Search for Another Location

Airport or City:

Astronomy

Aug. 24, 2019 Rise Set
Actual Time 6:11 AM CDT 7:34 PM CDT
Civil Twilight 5:42 AM CDT 8:02 PM CDT
Nautical Twilight 5:09 AM CDT 8:36 PM CDT
Astronomical Twilight 4:33 AM CDT 9:11 PM CDT
Moon 12:04 AM CDT (8/24) 2:49 PM CDT (8/24)
Length of Visible Light 14h 19m
Length of Day
13h 23m
Last Quarter, 39% of the Moon is Illuminated
Aug 24
Last Quarter
Aug 30
New
Sep 5
First Quarter
Sep 13
Full
Sep 21
Last Quarter

Hourly Weather History & Observations

Time (CDT) Temp. Dew Point Humidity Pressure Visibility Wind Dir Wind Speed Gust Speed Precip Events Conditions
12:15 AM 61.7 °F 57.2 °F 85% 30.20 in 10.0 mi NE 5.8 mph - N/A   Overcast
12:35 AM 61.5 °F 57.2 °F 86% 30.20 in 10.0 mi NE 4.6 mph - N/A   Overcast
12:55 AM 61.2 °F 57.4 °F 87% 30.20 in 10.0 mi NE 5.8 mph - N/A   Mostly Cloudy
1:15 AM 60.8 °F 57.2 °F 88% 30.20 in 10.0 mi Calm Calm - N/A   Overcast
1:35 AM 60.3 °F 57.4 °F 90% 30.20 in 10.0 mi ENE 4.6 mph - N/A   Overcast
1:55 AM 60.3 °F 57.6 °F 91% 30.21 in 10.0 mi ENE 3.5 mph - N/A   Overcast
2:15 AM 59.4 °F 57.2 °F 93% 30.21 in 10.0 mi NE 4.6 mph - N/A   Mostly Cloudy
2:35 AM 58.8 °F 57.0 °F 94% 30.21 in 10.0 mi NE 3.5 mph - N/A   Scattered Clouds
2:55 AM 58.1 °F 56.7 °F 95% 30.22 in 10.0 mi Calm Calm - N/A   Clear
3:15 AM 57.6 °F 56.3 °F 96% 30.22 in 10.0 mi NE 3.5 mph - N/A   Clear
3:35 AM 57.2 °F 56.3 °F 97% 30.22 in 10.0 mi Calm Calm - N/A   Clear
3:55 AM 56.5 °F 55.6 °F 97% 30.22 in 10.0 mi NE 3.5 mph - N/A   Clear
4:15 AM 56.5 °F 55.8 °F 97% 30.22 in 10.0 mi Calm Calm - N/A   Clear
4:35 AM 55.8 °F 55.0 °F 97% 30.22 in 10.0 mi Calm Calm - N/A   Clear
4:55 AM 55.9 °F 55.4 °F 98% 30.22 in 10.0 mi Calm Calm - N/A   Clear
5:15 AM 56.1 °F 55.4 °F 97% 30.23 in 10.0 mi Calm Calm - N/A   Clear
5:35 AM 55.6 °F 54.9 °F 97% 30.23 in 10.0 mi Calm Calm - N/A   Clear
5:55 AM 55.0 °F 54.5 °F 98% 30.23 in 10.0 mi ENE 3.5 mph - N/A   Clear
6:15 AM 54.9 °F 54.3 °F 98% 30.23 in 10.0 mi ENE 3.5 mph - N/A   Clear
6:35 AM 55.4 °F 54.9 °F 98% 30.24 in 10.0 mi NE 3.5 mph - N/A   Clear
6:55 AM 57.0 °F 56.3 °F 97% 30.23 in 10.0 mi NE 4.6 mph - N/A   Clear
7:15 AM 58.5 °F 57.0 °F 95% 30.24 in 10.0 mi ENE 3.5 mph - N/A   Clear
7:35 AM 60.1 °F 57.4 °F 91% 30.24 in 10.0 mi ENE 5.8 mph - N/A   Clear
7:55 AM 61.9 °F 58.1 °F 87% 30.25 in 10.0 mi ENE 5.8 mph - N/A   Clear
8:15 AM 63.7 °F 59.2 °F 85% 30.25 in 10.0 mi East 8.1 mph - N/A   Clear
8:35 AM 65.3 °F 59.0 °F 80% 30.25 in 10.0 mi East 8.1 mph - N/A   Clear
8:55 AM 65.5 °F 59.7 °F 82% 30.25 in 10.0 mi East 8.1 mph - N/A   Clear
9:15 AM 67.5 °F 60.4 °F 78% 30.25 in 10.0 mi East 8.1 mph - N/A   Clear
9:35 AM 68.5 °F 60.4 °F 75% 30.24 in 10.0 mi East 10.4 mph - N/A   Clear
9:55 AM 70.9 °F 61.3 °F 72% 30.24 in 10.0 mi ENE 8.1 mph - N/A   Clear
10:15 AM 70.9 °F 60.6 °F 70% 30.24 in 10.0 mi East 10.4 mph 16.1 mph N/A   Clear
10:35 AM 72.7 °F 61.7 °F 68% 30.24 in 10.0 mi East 8.1 mph - N/A   Scattered Clouds
10:55 AM 72.5 °F 60.3 °F 65% 30.24 in 10.0 mi East 12.7 mph - N/A   Clear
11:15 AM 72.7 °F 60.6 °F 66% 30.24 in 10.0 mi East 11.5 mph 16.1 mph N/A   Scattered Clouds
11:35 AM 71.6 °F 59.0 °F 64% 30.24 in 10.0 mi East 11.5 mph 17.3 mph N/A   Scattered Clouds
11:55 AM 73.2 °F 59.9 °F 63% 30.23 in 10.0 mi East 12.7 mph 18.4 mph N/A   Clear
12:15 PM 75.2 °F 60.4 °F 60% 30.22 in 10.0 mi ENE 12.7 mph - N/A   Scattered Clouds
12:35 PM 74.1 °F 59.4 °F 60% 30.21 in 10.0 mi East 13.8 mph 17.3 mph N/A   Scattered Clouds
12:55 PM 75.2 °F 59.7 °F 58% 30.20 in 10.0 mi ENE 12.7 mph 18.4 mph N/A   Scattered Clouds
1:15 PM 75.0 °F 60.4 °F 60% 30.20 in 10.0 mi East 12.7 mph - N/A   Scattered Clouds
1:35 PM 76.8 °F 61.3 °F 59% 30.20 in 10.0 mi NE 10.4 mph - N/A   Mostly Cloudy
1:55 PM 75.7 °F 60.1 °F 58% 30.19 in 10.0 mi East 11.5 mph - N/A   Mostly Cloudy
2:15 PM 74.3 °F 59.5 °F 60% 30.19 in 10.0 mi NE 11.5 mph - N/A   Mostly Cloudy
2:35 PM 74.8 °F 60.1 °F 60% 30.18 in 10.0 mi East 11.5 mph 16.1 mph N/A   Mostly Cloudy
2:55 PM 76.5 °F 59.5 °F 56% 30.17 in 10.0 mi ENE 13.8 mph - N/A   Scattered Clouds
3:15 PM 76.1 °F 59.5 °F 56% 30.17 in 10.0 mi East 12.7 mph 18.4 mph N/A   Scattered Clouds
3:35 PM 76.5 °F 59.9 °F 56% 30.16 in 10.0 mi East 10.4 mph - N/A   Scattered Clouds
3:55 PM 76.6 °F 59.2 °F 55% 30.16 in 10.0 mi East 10.4 mph - N/A   Scattered Clouds
4:15 PM 76.6 °F 59.5 °F 55% 30.15 in 10.0 mi ENE 10.4 mph 16.1 mph N/A   Scattered Clouds
4:35 PM 76.6 °F 58.8 °F 54% 30.15 in 10.0 mi ENE 9.2 mph - N/A   Scattered Clouds
4:55 PM 76.1 °F 59.0 °F 55% 30.14 in 10.0 mi ENE 9.2 mph - N/A   Scattered Clouds
5:15 PM 75.2 °F 58.6 °F 56% 30.14 in 10.0 mi NE 8.1 mph - N/A   Clear
5:35 PM 75.2 °F 58.5 °F 56% 30.14 in 10.0 mi NE 9.2 mph - N/A   Clear
5:55 PM 74.3 °F 59.0 °F 59% 30.14 in 10.0 mi ENE 9.2 mph - N/A   Clear
6:15 PM 73.4 °F 58.5 °F 59% 30.14 in 10.0 mi ENE 6.9 mph - N/A   Clear
6:35 PM 71.8 °F 58.6 °F 63% 30.14 in 10.0 mi NE 8.1 mph - N/A   Clear
6:55 PM 70.3 °F 59.7 °F 69% 30.14 in 10.0 mi NE 4.6 mph - N/A   Clear
7:15 PM 68.2 °F 59.5 °F 74% 30.14 in 10.0 mi NE 5.8 mph - N/A   Clear
7:35 PM 67.1 °F 59.4 °F 76% 30.14 in 10.0 mi NE 5.8 mph - N/A   Clear
7:55 PM 66.0 °F 59.2 °F 79% 30.14 in 10.0 mi NE 5.8 mph - N/A   Clear
8:15 PM 64.6 °F 59.4 °F 83% 30.15 in 10.0 mi NE 4.6 mph - N/A   Clear
8:35 PM 63.5 °F 59.2 °F 86% 30.15 in 10.0 mi NE 4.6 mph - N/A   Clear
8:55 PM 63.5 °F 59.0 °F 85% 30.16 in 10.0 mi NE 4.6 mph - N/A   Clear
9:15 PM 63.0 °F 59.0 °F 87% 30.17 in 10.0 mi NE 3.5 mph - N/A   Clear
9:35 PM 62.6 °F 58.6 °F 87% 30.17 in 10.0 mi ENE 4.6 mph - N/A   Clear
9:55 PM 61.3 °F 58.5 °F 90% 30.17 in 10.0 mi ENE 5.8 mph - N/A   Clear
10:15 PM 61.5 °F 58.5 °F 90% 30.17 in 10.0 mi NE 4.6 mph - N/A   Clear
10:35 PM 61.0 °F 58.3 °F 91% 30.17 in 10.0 mi NE 4.6 mph - N/A   Clear
10:55 PM 60.8 °F 58.1 °F 91% 30.17 in 10.0 mi NE 4.6 mph - N/A   Clear
11:10 PM 60.8 °F 58.1 °F 91% 30.17 in 10.0 mi ENE 4.6 mph - N/A   Clear
11:35 PM 59.9 °F 57.7 °F 93% 30.16 in 10.0 mi ENE 5.8 mph - N/A   Clear
11:55 PM 60.4 °F 58.1 °F 92% 30.15 in 10.0 mi ENE 5.8 mph - N/A   Clear